Weather History for Roanoke, VA

Change the Weather History Date:

Tuesday, February 11, 2014

  Actual Average Record
Temperature  
Mean Temperature 30 °F 39 °F  
Max Temperature 37 °F 48 °F 80 °F (1932)
Min Temperature 22 °F 29 °F 5 °F (1936)
Degree Days  
Heating Degree Days 35 26  
Month to date heating degree days 294 297  
Since 1 July heating degree days 2932 2789  
Cooling Degree Days 0 0  
Month to date cooling degree days 0 0  
Year to date cooling degree days 0 0  
Moisture  
Dew Point 11 °F    
Average Humidity 47    
Maximum Humidity 65    
Minimum Humidity 29    
Precipitation  
Precipitation 0.00 in 0.10 in 2.44 in (1994)
Month to date precipitation 2.08 1.13  
Year to date precipitation 3.89 4.05  
Snow  
Snow 0.00 in - - ()
Month to date snowfall T  
Since 1 July snowfall 3.4  
Snow Depth 0.00 in    
Sea Level Pressure  
Sea Level Pressure 30.35 in    
Wind  
Wind Speed 3 mph (East)    
Max Wind Speed 12 mph    
Max Gust Speed 14 mph    
Visibility 10 miles    
Events      
T = Trace of Precipitation, MM = Missing Value Source: NWS Daily Summary

Daily Weather History Graph

Daily Weather History Graph

Search for Another Location

Airport:

Trip Planner

Search our weather history database for the weather conditions in past years. The results will help you decide how hot, cold, wet, or windy it might be!

Date:

Astronomy

Feb. 11, 2014 Rise Set
Actual Time 7:13 AM EST 5:55 PM EST
Civil Twilight 6:46 AM EST 6:22 PM EST
Nautical Twilight 6:15 AM EST 6:52 PM EST
Astronomical Twilight 5:45 AM EST 7:23 PM EST
Moon 3:16 PM EST (2/11) 4:47 AM EST (2/11)
Length of Visible Light 11h 35m
Length of Day
10h 41m
Waxing Gibbous, 90% of the Moon is Illuminated
Feb 11
Waxing Gibbous
Feb 14
Full
Feb 22
Last Quarter
Mar 1
New
Mar 8
First Quarter

Hourly Weather History & Observations

Time (EST) Temp. Windchill Dew Point Humidity Pressure Visibility Wind Dir Wind Speed Gust Speed Precip Events Conditions
12:54 AM 26.1 °F 21.9 °F 10.9 °F 53% 30.30 in 10.0 mi North 3.5 mph - N/A   Clear
1:54 AM 26.1 °F 21.9 °F 10.9 °F 53% 30.30 in 10.0 mi North 3.5 mph - N/A   Clear
2:54 AM 25.0 °F 20.7 °F 10.0 °F 53% 30.30 in 10.0 mi NE 3.5 mph - N/A   Partly Cloudy
3:54 AM 24.1 °F - 10.9 °F 57% 30.31 in 10.0 mi Calm Calm - N/A   Partly Cloudy
4:54 AM 23.0 °F 18.4 °F 10.0 °F 58% 30.33 in 10.0 mi NNE 3.5 mph - N/A   Partly Cloudy
5:54 AM 21.9 °F 14.5 °F 10.9 °F 63% 30.34 in 10.0 mi NNE 5.8 mph - N/A   Clear
6:54 AM 23.0 °F - 10.9 °F 60% 30.36 in 10.0 mi Calm Calm - N/A   Mostly Cloudy
7:54 AM 23.0 °F - 12.0 °F 63% 30.39 in 10.0 mi Calm Calm - N/A   Mostly Cloudy
8:54 AM 25.0 °F - 12.0 °F 58% 30.39 in 10.0 mi Calm Calm - N/A   Mostly Cloudy
9:54 AM 27.0 °F - 14.0 °F 58% 30.39 in 10.0 mi Calm Calm - N/A   Mostly Cloudy
10:54 AM 27.0 °F - 12.0 °F 53% 30.40 in 10.0 mi Calm Calm - N/A   Scattered Clouds
11:54 AM 30.0 °F - 12.0 °F 47% 30.38 in 10.0 mi Calm Calm - N/A   Scattered Clouds
12:54 PM 33.1 °F 28.7 °F 12.0 °F 42% 30.35 in 10.0 mi South 4.6 mph - N/A   Mostly Cloudy
1:54 PM 35.1 °F 32.2 °F 10.0 °F 35% 30.32 in 10.0 mi Variable 3.5 mph - N/A   Scattered Clouds
2:54 PM 35.1 °F - 9.0 °F 34% 30.31 in 10.0 mi Calm Calm - N/A   Scattered Clouds
3:54 PM 37.0 °F - 8.1 °F 30% 30.31 in 10.0 mi Calm Calm - N/A   Scattered Clouds
4:54 PM 37.0 °F - 8.1 °F 30% 30.32 in 10.0 mi Calm Calm - N/A   Partly Cloudy
5:54 PM 33.1 °F 25.5 °F 12.0 °F 42% 30.33 in 10.0 mi SE 9.2 mph - N/A   Partly Cloudy
6:54 PM 28.9 °F 21.9 °F 12.0 °F 49% 30.37 in 10.0 mi SSE 6.9 mph - N/A   Partly Cloudy
7:54 PM 30.0 °F 26.5 °F 10.9 °F 45% 30.38 in 10.0 mi ESE 3.5 mph - N/A   Clear
8:54 PM 28.9 °F 23.9 °F 12.0 °F 49% 30.40 in 10.0 mi ESE 4.6 mph - N/A   Clear
9:54 PM 27.0 °F 20.5 °F 10.9 °F 51% 30.42 in 10.0 mi ESE 5.8 mph - N/A   Clear
10:54 PM 27.0 °F 20.5 °F 10.0 °F 49% 30.43 in 10.0 mi ESE 5.8 mph - N/A   Partly Cloudy
11:54 PM 25.0 °F 20.7 °F 10.9 °F 55% 30.43 in 10.0 mi SE 3.5 mph - N/A   Partly Cloudy